Le nostre stazioni meteo in Italia

Pubblicità
Il mio iltempo24.it
Bolzano, Italia (16020): Temperatura & dewpoint: 16.01.2020 00:00:00 - 22.01.2020 00:00:00 (CET)Bolzano, Italia (16020): velocità del vento: 16.01.2020 00:00:00 - 22.01.2020 00:00:00 (CET)Bolzano, Italia (16020): direzione del vento: 16.01.2020 00:00:00 - 22.01.2020 00:00:00 (CET)Bolzano, Italia (16020): visibility: 16.01.2020 00:00:00 - 22.01.2020 00:00:00 (CET)
Data & Tempo tt [°C] td [°C] ff [km/h] ff [kn] dd vv [km]
22.01.2020 00:00:00 - - - - - -
21.01.2020 23:00:00 -3,0 -8,0 4 2 - 10
21.01.2020 22:00:00 -2,0 -9,0 2 1 - 10
21.01.2020 21:00:00 -3,0 -9,0 0 0 N 10
21.01.2020 20:00:00 -2,0 -9,0 4 2 - 10
21.01.2020 19:00:00 -1,0 -9,0 0 0 N 10
21.01.2020 18:00:00 1,0 -9,0 2 1 - 10
21.01.2020 17:00:00 3,0 -10,0 2 1 NNO 10
21.01.2020 16:00:00 6,0 -10,0 5 3 - 10
21.01.2020 15:00:00 7,0 -11,0 4 2 - 10
21.01.2020 14:00:00 6,0 -11,0 2 1 - 10
21.01.2020 13:00:00 5,0 -10,0 4 2 - 10
21.01.2020 12:00:00 4,0 -10,0 5 3 - 10
21.01.2020 11:00:00 1,0 -9,0 4 2 - 10
21.01.2020 10:00:00 -4,0 -9,0 4 2 - 10
21.01.2020 09:00:00 -6,0 -9,0 4 2 - 10
21.01.2020 08:00:00 -6,0 -10,0 4 2 - 10
21.01.2020 07:00:00 -6,0 -10,0 4 2 - 10
21.01.2020 06:00:00 - - - - - -
21.01.2020 05:00:00 - - - - - -
21.01.2020 04:00:00 - - - - - -
21.01.2020 03:00:00 - - - - - -
21.01.2020 02:00:00 - - - - - -
21.01.2020 01:00:00 - - - - - -
21.01.2020 00:00:00 - - - - - -
20.01.2020 23:00:00 -4,0 -9,0 2 1 - 10
20.01.2020 22:00:00 -4,0 -10,0 2 1 - 10
20.01.2020 21:00:00 -1,0 -9,0 0 0 N 10
20.01.2020 20:00:00 0,0 -9,0 4 2 - 10
20.01.2020 19:00:00 -1,0 -10,0 4 2 - 10
20.01.2020 18:00:00 0,0 -10,0 4 2 - 10
20.01.2020 17:00:00 3,0 -11,0 2 1 - 10
20.01.2020 16:00:00 6,0 -11,0 4 2 - 10
20.01.2020 15:00:00 6,0 -12,0 4 2 - 10
20.01.2020 14:00:00 7,0 -11,0 4 2 - 10
20.01.2020 13:00:00 5,0 -12,0 2 1 - 10
20.01.2020 12:00:00 4,0 -11,0 2 1 - 10
20.01.2020 11:00:00 3,0 -9,0 0 0 N 10
20.01.2020 10:00:00 -3,0 -9,0 2 1 - 10
20.01.2020 09:00:00 -3,0 -10,0 5 3 - 10
20.01.2020 08:00:00 -4,0 -9,0 4 2 - 10
20.01.2020 07:00:00 -5,0 -9,0 4 2 - 10
20.01.2020 06:00:00 - - - - - -
20.01.2020 05:00:00 - - - - - -
20.01.2020 04:00:00 - - - - - -
20.01.2020 03:00:00 - - - - - -
20.01.2020 02:00:00 - - - - - -
20.01.2020 01:00:00 - - - - - -
20.01.2020 00:00:00 - - - - - -
19.01.2020 23:00:00 -1,0 -10,0 0 0 N 10
19.01.2020 22:00:00 2,0 -11,0 4 2 - 10
19.01.2020 21:00:00 3,0 -12,0 8 4 NO 10
19.01.2020 20:00:00 4,0 -13,0 5 3 - 10
19.01.2020 19:00:00 6,0 -14,0 8 4 - 10
19.01.2020 18:00:00 6,0 -13,0 9 5 - 10
19.01.2020 17:00:00 7,0 -13,0 15 8 N 10
19.01.2020 16:00:00 9,0 -13,0 18 10 N 10
19.01.2020 15:00:00 9,0 -13,0 15 8 N 10
19.01.2020 14:00:00 10,0 -11,0 13 7 N 10
19.01.2020 13:00:00 8,0 -8,0 4 2 - 10
19.01.2020 12:00:00 6,0 -6,0 2 1 - 10
19.01.2020 11:00:00 5,0 -6,0 2 1 - 10
19.01.2020 10:00:00 -1,0 -6,0 2 1 - 10
19.01.2020 09:00:00 -2,0 -6,0 2 1 - 10
19.01.2020 08:00:00 -2,0 -6,0 4 2 - 10
19.01.2020 07:00:00 -2,0 -6,0 2 1 - 10
19.01.2020 06:00:00 - - - - - -
19.01.2020 05:00:00 - - - - - -
19.01.2020 04:00:00 - - - - - -
19.01.2020 03:00:00 - - - - - -
19.01.2020 02:00:00 - - - - - -
19.01.2020 01:00:00 - - - - - -
19.01.2020 00:00:00 - - - - - -
18.01.2020 23:00:00 5,0 -3,0 8 4 N 10
18.01.2020 22:00:00 6,0 -3,0 11 6 NO 10
18.01.2020 21:00:00 8,0 -6,0 4 2 - 10
18.01.2020 20:00:00 9,0 -6,0 9 5 ENE 10
18.01.2020 19:00:00 9,0 -5,0 8 4 - 10
18.01.2020 18:00:00 10,0 -6,0 9 5 - 10
18.01.2020 17:00:00 10,0 -4,0 11 6 - 10
18.01.2020 16:00:00 6,0 -1,0 8 4 - 10
18.01.2020 15:00:00 6,0 -1,0 4 2 - 10
18.01.2020 14:00:00 7,0 -1,0 4 2 - 10
18.01.2020 13:00:00 6,0 -2,0 2 1 - 10
18.01.2020 12:00:00 5,0 -2,0 4 2 - 10
18.01.2020 11:00:00 4,0 -2,0 2 1 - 10
18.01.2020 10:00:00 2,0 -2,0 4 2 - 10
18.01.2020 09:00:00 1,0 -2,0 4 2 - 10
18.01.2020 08:00:00 0,0 -2,0 0 0 N 10
18.01.2020 07:00:00 0,0 -3,0 4 2 - 10
18.01.2020 06:00:00 - - - - - -
18.01.2020 05:00:00 - - - - - -
18.01.2020 04:00:00 - - - - - -
18.01.2020 03:00:00 - - - - - -
18.01.2020 02:00:00 - - - - - -
18.01.2020 01:00:00 - - - - - -
18.01.2020 00:00:00 - - - - - -
17.01.2020 23:00:00 -1,0 -4,0 2 1 - 10
17.01.2020 22:00:00 -2,0 -4,0 4 2 - 10
17.01.2020 21:00:00 0,0 -3,0 4 2 - 10
17.01.2020 20:00:00 -1,0 -4,0 4 2 - 10
17.01.2020 19:00:00 3,0 -3,0 4 2 - 10
17.01.2020 18:00:00 1,0 -3,0 5 3 - 10
17.01.2020 17:00:00 3,0 -4,0 4 2 - 10
17.01.2020 16:00:00 7,0 -3,0 5 3 OSO 10
17.01.2020 15:00:00 8,0 -3,0 4 2 - 10
17.01.2020 14:00:00 7,0 -3,0 4 2 - 10
17.01.2020 13:00:00 6,0 -3,0 4 2 - 10
17.01.2020 12:00:00 4,0 -3,0 0 0 N 10
17.01.2020 11:00:00 2,0 -2,0 0 0 N 10
17.01.2020 10:00:00 -5,0 -6,0 2 1 - 10
17.01.2020 09:00:00 -5,0 -7,0 0 0 N 10
17.01.2020 08:00:00 -5,0 -6,0 4 2 NNO 10
17.01.2020 07:00:00 -7,0 -8,0 0 0 N 10
17.01.2020 06:00:00 - - - - - -
17.01.2020 05:00:00 - - - - - -
17.01.2020 04:00:00 - - - - - -
17.01.2020 03:00:00 - - - - - -
17.01.2020 02:00:00 - - - - - -
17.01.2020 01:00:00 - - - - - -
17.01.2020 00:00:00 - - - - - -
16.01.2020 23:00:00 -3,0 -5,0 2 1 - 10
16.01.2020 22:00:00 -3,0 -5,0 0 0 N 10
16.01.2020 21:00:00 -1,0 -4,0 2 1 - 10
16.01.2020 20:00:00 -1,0 -3,0 4 2 - 10
16.01.2020 19:00:00 0,0 -3,0 2 1 NNO 10
16.01.2020 18:00:00 1,0 -4,0 4 2 - 10
16.01.2020 17:00:00 4,0 -3,0 4 2 - 10
16.01.2020 16:00:00 7,0 -3,0 5 3 OSO 10
16.01.2020 15:00:00 8,0 -3,0 4 2 - 10
16.01.2020 14:00:00 7,0 -3,0 2 1 - 10
16.01.2020 13:00:00 7,0 -3,0 5 3 O 10
16.01.2020 12:00:00 4,0 -4,0 2 1 - 10
16.01.2020 11:00:00 2,0 -2,0 0 0 N 10
16.01.2020 10:00:00 -5,0 -6,0 0 0 N 10
16.01.2020 09:00:00 -5,0 -6,0 2 1 NO 10
16.01.2020 08:00:00 -6,0 -7,0 0 0 N 10
16.01.2020 07:00:00 -6,0 -8,0 4 2 - 10
16.01.2020 06:00:00 - - - - - -
16.01.2020 05:00:00 - - - - - -
16.01.2020 04:00:00 - - - - - -
16.01.2020 03:00:00 - - - - - -
16.01.2020 02:00:00 - - - - - -
16.01.2020 01:00:00 - - - - - -
16.01.2020 00:00:00 - - - - - -

tt = Temperatura
td = dewpoint
ff = velocità del vento
dd = direzione del vento
vv = visibility

Stazioni seguenti

WeatherPro
AMSI
MeteoEarth